P/2010 P4 ( WISE )

Japanese version
Home page
Updated on September 3, 2011

---------------------------------------------------------------------

* Profile

Discovery Date August 6, 2010
Magnitude
Discoverer Wide Field Infrared Survey Explorer (NASA)

* Pictures

* Orbital Elements

Epoch 2010 July 23.0 TT = JDT 2455400.5
T 2010 July 6.07909 TT                                  MPC
q   1.8564846            (2000.0)            P               Q
n   0.13829012     Peri.  354.24803     +0.99775552     +0.06507936
a   3.7034682      Node     2.21284     -0.03234683     +0.67459530
e   0.4987173      Incl.   24.10150     -0.05863115     +0.73531344
P   7.13
From 58 observations 2010 Aug. 6-2011 Jan. 2, mean residual 0".5.

* Magnitudes Graph

        m1 = 16.0 + 5 log d + 10.0 log r

---------------------------------------------------------------------

The orbital elements are published on M.P.E.C. 2011-A38.
The magnitudes graphs are made with Comet for Windows.

---------------------------------------------------------------------

Copyright(C) Seiichi Yoshida (comet@aerith.net). All rights reserved.